SL-14 DEB

Satellite information

Favourite Embed

Satellite Type and Status

DEBRISIN ORBIT

Key statistics

Satellite SL-14 DEB at a glance.

Uptime

13952

Days in orbit

Revolutions

≈ 13.9

Per day

Orbit

LEO

Low Earth Orbit

Inclination

82.5

Latest

Satellite identification and parameters

Extended collection of information and parameters for SL-14 DEB.

Object identification

Identified? True

Debris? True

Object name: SL-14 DEB

International designator: 1987-068DJ

Object number (NORAD): 39982

Object ID (CCSDS): 39982

Country: COMMONWEALTH OF INDEPENDENT STATES (CIS)

Current information (Y/N): Y

RCS size: SMALL

Orbital parameters

Period: 103.627 minutes

Inclination: 82.5463 deg

SMA: 7308.196 km

Apoapsis: 942.57 km

Periapsis: 917.551 km

RAAN: 66.8675 deg

Eccentricy: 0.00171167

Argument of periapsis: 179.0589 deg

Mean anomaly: 201.4797 deg

Mean motion: 13.89592707 rev/day

Mean motion (dot): 0.00000395 rev/day2

B* drag term: 0.0003098559 1/REarth

Two-line elements (TLE)

Creation date: Oct. 28, 2025, 2:18 a.m.

Reference frame: TEME

Reference center: EARTH

Epoch: Oct. 27, 2025, 3:03 p.m. UTC

TLE line 0: 0 SL-14 DEB

TLE line 1: 1 39982U 87068DJ 25300.62714685 .00000395 00000-0 30986-3 0 9995

TLE line 2: 2 39982 82.5463 66.8675 0017117 179.0589 201.4797 13.89592707577522

Live tracking on map

Real-time ground track for satellite SL-14 DEB.

In-orbit conjunctions

A list of the most updated potential collisions computed for object SL-14 DEB.

Target Orbit TCA Probability of collision Miss distance Type
COSMOS 198 LEO 2025-10-21 21:16:38 0.0002015004 470.0 (m) PAYLOAD

Associated space launch

Second generation soviet meteorological satellite

SL-14 DEB was lifted into orbit during the mission ‘Tsiklon-3 | Meteor-2 16’, on board a Tsiklon-3 space rocket.

The launch took place on Aug. 18, 1987, 2:27 a.m. from 32/1.

For more information about the launch, click the button.

Launch to space Tsiklon-3 | Meteor-2 16
Tsiklon-3 | Meteor-2 16

Agency: N/A

Status: Launch Successful

Launch date: Aug. 18, 1987, 2:27 a.m. UTC

Rocket: Tsiklon-3

Launch pad: 32/1

Location: Plesetsk Cosmodrome, Russian Federation

...

Latest news about this satellite

There are no fresh news available about this satellite. Check back as we update our databases every day.


Newsletter sign-up

Weekly statistics, charts and insights to help you stay on top of the space industry.